Location: Caserta
(41.0670°N, 14.3330°E)
Time: 04:09:03
(UTC+02:00)

STARLINK-1341 - Pass Details

Date: 08 October 2020
Orbit: 549 x 550 km, 53.0° (Epoch: 20 October)

Event Time Altitude Azimuth Distance (km) Brightness Sun altitude
Exits shadow 05:27:39 12° 334° (NNW) 1,679 5.9 -19.5°
Maximum altitude 05:29:32 16° 5° (N) 1,488 6.0 -19.1°
Drops below altitude 10° 05:32:07 10° 43° (NE) 1,825 7.0 -18.6°
Sets 05:35:07 0° 66° (ENE) 2,719 8.6 -18.1°
